Simultaneous Nadir Overpasses (SNOs) Predictions

Prediction of SNOs between TERRA and METOP-C Satellite Orbit:

Table of predicted SNOs for the next 14.0 days since TLE Epoch: 1/2/2021
Index Date (TERRA) Time (TERRA) Lat,Lon (TERRA) SZA (TERRA ) Date (METOP-C) Time (METOP-C) Lat,Lon (METOP-C) SZA (METOP-C ) Distance(km) Time Diff (sec)
1 01/03/2021 03:41:06 81.27, 171.09 106.50 01/03/2021 03:40:24 81.27, 170.97 106.47 2.05 42
2 01/03/2021 04:30:31 -81.29, -21.00 73.47 01/03/2021 04:31:01 -81.29, -20.85 73.44 2.55 30
3 01/05/2021 23:15:19 81.28,-122.38 106.17 01/05/2021 23:14:45 81.28,-122.19 106.18 3.11 34
4 01/06/2021 00:04:45 -81.29, 45.56 73.79 01/06/2021 00:05:24 -81.29, 45.66 73.77 1.80 39
5 01/08/2021 18:49:33 81.28, -55.88 105.78 01/08/2021 18:49:08 81.28, -55.77 105.79 2.01 25
6 01/08/2021 19:39:00 -81.28, 111.70 74.23 01/08/2021 19:39:48 -81.28, 111.76 74.20 1.30 48
7 01/11/2021 14:23:47 81.28, 10.56 105.33 01/11/2021 14:23:31 81.28, 10.64 105.34 1.29 16
8 01/11/2021 15:13:14 -81.28, 178.17 74.68 01/11/2021 15:14:11 -81.28, 178.24 74.64 1.28 57
9 01/14/2021 09:58:00 81.28, 76.96 104.83 01/14/2021 09:57:53 81.28, 77.02 104.83 0.96 7



Historial Predications of SNOs between TERRA and METOP-C
